Regional Weather Roundup
Issued by NWS Upton, NY

Current Version | Previous Version | Graphics & Text | Print | Product List | Glossary Off
Versions: 1 2 3 4 5 6 7 8 9 10 11 12 13 14 15 16 17 18 19 20 21 22 23 24 25 26 27 28 29 30 31 32 33 34 35 36 37 38 39 40 41 42 43 44 45 46 47 48 49 50

000
ASUS41 KOKX 261307
RWROKX

REGIONAL WEATHER ROUNDUP
NATIONAL WEATHER SERVICE NEW YORK NY
900 AM EDT SUN APR 26 2015

NOTE: "FAIR" INDICATES FEW OR NO CLOUDS BELOW 12,000 FEET WITH NO
SIGNIFICANT WEATHER AND/OR OBSTRUCTIONS TO VISIBILITY.

NYZ071-072-176-178-NJZ106-104-261400-
NEW YORK CITY METRO AREA


CITY           SKY/WX    TMP DP  RH WIND       PRES   REMARKS
CENTRAL PARK   MOSUNNY   52  28  39 NE7       29.73S
LAGUARDIA APRT MOSUNNY   50  31  48 NE9       29.71R
KENNEDY INTL   PTSUNNY   53  29  39 NE12      29.71S
NEWARK/LIBERTY MOSUNNY   51  30  44 NE9       29.71S
BRNX BOT. GARD   N/A     50  30  46 E8        29.74R
TETERBORO      MOSUNNY   52  30  43 NE6       29.71R
$$

NYZ177-179-078>081-261400-
LONG ISLAND NEW YORK

CITY           SKY/WX    TMP DP  RH WIND       PRES   REMARKS
FARMINGDALE    MOSUNNY   51  32  48 E8        29.70S
ISLIP          MOSUNNY   52  32  46 NE10      29.69R
SHIRLEY        MOSUNNY   51  34  52 N6        29.71R
WESTHAMPTON    MOSUNNY   53  32  44 NE10      29.71R
MONTAUK POINT    N/A     48  34  58 VRB3      29.70S
$$

NYZ052-065-067-261400-
HUDSON VALLEY

CITY           SKY/WX    TMP DP  RH WIND       PRES   REMARKS
WHITE PLAINS   SUNNY     50  28  42 N8        29.70R
NEWBURGH       SUNNY     46  34  61 CALM      29.73R
MONTGOMERY     SUNNY     48  32  53 CALM      29.72R
POUGHKEEPSIE   SUNNY     47  31  53 CALM      29.72S
ALBANY         PTSUNNY   47  31  53 W3        29.74S
$$

NJZ001-105-106-008-010-013-015-019>022-104-261400-
NEW JERSEY

CITY           SKY/WX    TMP DP  RH WIND       PRES   REMARKS
NEWARK/LIBERTY MOSUNNY   51  30  44 NE9       29.71S
TETERBORO      MOSUNNY   52  30  43 NE6       29.71R
CALDWELL       MOSUNNY   50  31  48 E12       29.72S
MORRISTOWN     MOSUNNY   50  30  46 E7        29.72R
SOMERVILLE     MOSUNNY   53  30  41 VRB6      29.69S
SUSSEX         SUNNY     48  31  51 MISG      29.72S
ANDOVER          N/A     46  30  53 VRB3      29.72S
TRENTON        MOSUNNY   50  30  46 NE12      29.69S
MILLVILLE      CLOUDY    49  34  56 NE12      29.67S
ATLANTIC CITY  CLOUDY    49  38  65 NE9       29.68R
WRIGHTSTOWN    PTSUNNY   51  33  50 NE13      29.67R
TOMS RIVER     PTSUNNY   52  34  50 E15       29.69S
BELMAR         PTSUNNY   48  32  53 E13G20    29.70R
$$

PAZ047>061-062-071-261400-
EASTERN PENNSYLVANIA

CITY           SKY/WX    TMP DP  RH WIND       PRES   REMARKS
PHILADELPHIA   PTSUNNY   52  31  44 NE14G20   29.70R
ALLENTOWN      SUNNY     50  31  48 NE12      29.72R
SCRANTON       SUNNY     42  27  55 CALM      29.73S
$$

CTZ002-004>006-009-010-012-RIZ004-006-007-MAZ004-011-015-261400-
SOUTHERN NEW ENGLAND
 IN CT

CITY           SKY/WX    TMP DP  RH WIND       PRES   REMARKS
BRADLEY INTL   PTSUNNY   46  30  53 W3        29.69S
HARTFORD       CLOUDY    42  33  70 S3        29.71S
DANBURY        SUNNY     49  29  46 CALM      29.72R
WTRBRY/OXFORD  PTSUNNY   45  28  53 NW6       29.71S
BRIDGEPORT     SUNNY     52  31  44 NE5       29.71R
MERIDEN        CLOUDY    46  31  55 CALM      29.71S
NEW HAVEN      PTSUNNY   50  31  48 N6        29.70S
CHESTER        CLOUDY    46  30  53 NW5       29.70S
GROTON         CLOUDY    50  30  46 NW7       29.68F
WILLIMANTIC    CLOUDY    43  32  65 CALM      29.70S

 IN RI

CITY           SKY/WX    TMP DP  RH WIND       PRES   REMARKS
PROVIDENCE     MOSUNNY   51  31  46 N6        29.68F
BLOCK ISLAND   SUNNY     46  34  61 NE6       29.68S
WESTERLY       CLOUDY    49  31  49 VRB5      29.69F

 IN MA

CITY           SKY/WX    TMP DP  RH WIND       PRES   REMARKS
BOSTON         PTSUNNY   48  33  56 N8        29.68F
WORCESTER      CLOUDY    46  29  51 NW10      29.66F
WESTFIELD      CLOUDY    45  32  60 CALM      29.69S
PROVINCETOWN   MOSUNNY  N/A N/A N/A NW7       29.67F
NANTUCKET      SUNNY     49  32  52 N10       29.66F
$$

ANZ330-335-338-340-345-350-353-355-261400-
COASTAL MARINE OBSERVATIONS


STATION/POSITION TIME  SKY/WX   TEMP    WIND        PRES    VSBY  WAVE
                                AIR SEA DIR/SP/G                  HT/PER
                 (UTC)          (F)     (DEG/KT/KT) (MB)    (MI)  (FT/S)
NY HARB ENTRANCE 1250            46 45   60/ 12/ 14 1005.5          2/ 3
4S FIRE IS       1203               44                N/A           2/ 3
20S FIRE ISLAND  1250            44 43   70/ 12/ 14 1005.7          2/ 3
23SW MTP         NOT AVBL
HUDSON CANYON    NOT AVBL
EXECUTION ROCKS  NOT AVBL
WESTERN LI SOUND NOT AVBL
CENTRAL LI SOUND NOT AVBL
EASTERN LI SOUND 1200            49     340/  4/  6   N/A
ROBBINS REEF     1200            47      50/ 11/ 13 1004.7
$$


>>>>>>>>>>>>>>>>>>>>>>>>>>>> KEY <<<<<<<<<<<<<<<<<<<<<<<<<<<
>                                                          <
>     SKY/WX - SKY CONDITION/PRESENT WEATHER               <
>     TMP    - TEMPERATURE IN FAHRENHEIT                   <
>     DP     - DEWPOINT IN FAHRENHEIT                      <
>     RH     - RELATIVE HUMIDITY IN PERCENT                <
>     WIND   - DIRECTION AND SPEED IN MPH                  <
>     PRES   - MEAN SEA LEVEL PRESSURE IN INCHES OF HG     <
>     WCI    - WIND CHILL INDEX                            <
>     VSB    - VISIBILITY IN MILES                         <
>     HX     - HEAT INDEX                                  <
>     TC     - TEMPERATURE IN CELSIUS                      <
>     VRB    - VARIABLE WIND DIRECTION                     <
>                                                          <
>>>>>>>>>>>>>>>>>>>>>>>>>>>> KEY <<<<<<<<<<<<<<<<<<<<<<<<<<<





USA.gov is the U.S. government's official web portal to all federal, state and local government web resources and services.